星链-35436(STARLINK-35436)

导读 | 豆包AI

STARLINK-35436是美国SpaceX公司星链星座的一颗卫星,于2025年10月8日发射。作为星链计划的组成部分,它旨在为全球提供高速低延迟互联网服务,尤其覆盖偏远与网络基础设施匮乏地区。依托一箭多星发射技术,该卫星入轨后将进一步扩充星链星座规模,提升全球网络覆盖能力与服务稳定性。

基本信息
目录编号:
65932
目录名称:
STARLINK-35436
国际标识:
2025-225Y
轨道中心:
EARTH
卫星名称:
星链-35436
卫星全名:
星链-35436(STARLINK-35436)
卫星状态:
在轨 (已飞行178 天)
发射日期:
2025-10-08 UTC
国别 :
美国 (US)
星等 :
--
轨道信息
数据来源 国际轨道数据 AOE轨道数据
星历时间 2026-04-03T22:27:59+0800
17小时前
查看轨道信息
2026-03-31T20:00:00+0800
3天前
查看轨道信息
半长轴 6853.33km 6853.401km
偏心率 0.0001622 0.000175
轨道倾角 53.161° 53.154°
近地点辐角 99.849° 91.113°
升交点赤经 49.867° 64.283°
平近点角 260.270° 87.156°
近地点 474.081km 474.064km
远地点 476.305km 476.464km
周期 94.105分钟 94.106分钟
每日圈数 15.302076 15.301838
详细信息
固有亮度:
5
最大亮度:
2.5
卫星平台:
Starlink V1.0
覆盖范围:
全球
运营商:
太空探索技术公司
运营商所在国:
美国
制造商(研发单位):
太空探索技术公司
制造商所在国:
美国
使用方式:
暂无
卫星简介
Starlink 计划是 SpaceX 推出的全球卫星互联网项目,通过发射低轨道卫星,为全球尤其是偏远地区提供高速、低延迟的互联网服务。自 2019 年起,Starlink 已部署数千颗卫星,旨在缩小全球数字鸿沟,推动互联网普及。该项目还为军事、航空等行业提供通信支持,带来广泛经济效益。
2D轨道图
3D轨道图
轨道高度分析图
轨道倾角分析图
轨道综合分析图
查看轨道综合分析图